Location: Burland Observatory
(39.4088°N, 105.4217°W)
Time: 13:02:35
(UTC-07:00)

SR - Pass Details

Date: 08 December 2019
Orbit: 574 x 882 km, 66.7° (Epoch: 18 January)

Event Time Altitude Azimuth Distance (km) Brightness Sun altitude
Rises 11:15:11 0° 251° (WSW) 3,268 ? 27.2°
Reaches altitude 10° 11:18:08 10° 267° (W) 2,395 ? 27.3°
Maximum altitude 11:22:16 21° 315° (NW) 1,810 ? 27.4°
Drops below altitude 10° 11:26:35 10° 3° (N) 2,510 ? 27.5°
Sets 11:29:47 0° 19° (NNE) 3,474 ? 27.6°
